Погода в Медвежьегорске

Погода в Медвежьегорске : погода сейчас, прогноз погоды и архив. Всё, что Вы хотите узнать о погоде в Медвежьегорске!

Хотите узнать прогноз погоды в Медвежьегорске? Тогда Вам сюда: Погода в Медвежьегорске

Поиск расширенной информации на нашем сайте:

Другие новости

Новости СМИ2

Главная страница сайта

Новости сайта

03.07.2017

Напоминаем, что на нашем специализированном сайте Метеоцентр.Азия вы можете получить высокодетализированные автоматические прогнозы погоды по пунктам России, СНГ и мира в авиационном формате (включающие направление и скорость ветра, видимость, явления погоды, количество и форму облачности, нижнюю и верхнюю границу облачности).


Погода в Медвежьегорске - сегодня

Время (UTC), дата Ветер
(°,м/с) 
Видим.   Явления Облачность Т
(°С)
Тd
(°С)
f(%) Тe
(°С)
Pmin
(гПа)
dP
(гПа)
Po
(мм)
O2
(г/м3)
Тmin Tmax R s Состояние
почвы
03 18.11.17 290 (З) 10 км    8/8 1230 м 
[Sc]
+0.8 -0.1 94 997.1  -0.2  740  297  +0.4       
06 18.11.17 260 (З) 20000 м    9/9 1080 м 
[Sc]
+0.9 -0.2 92 +2  997.5  0.4  741  297  +0.6    0.1  равномерный
мокрый или
старый снег
100% 
09 18.11.17 280 (З) 20000 м    8/8 1230 м 
[Sc]
+1.6 -0.2 88 +2  998.6  1.1  741  297           
12 18.11.17 290 (З) 20000 м    9/9 1000 м 
[Sc]
+1.7 -0.9 83 +1  998.9  0.3  742  297           
15 18.11.17 290 (З) 20000 м    10/10 1050 м 
[Sc]
+1.5 -0.7 85 +2  999.6  0.7  742  297           
18 18.11.17 290 (З) 10 км    9/9 720 м 
[Sc]
+1.6 -1.5 80 +1  1000.5  0.8  743  298    +1.8       
21 18.11.17 тихо ()   10 км    9/9 1020 м 
[Sc]
+0.7 -0.8 90 +1  1001.8  1.2  744  299           
00 19.11.17 тихо ()   10 км  слаб. ливневой дождь [диам. гололёда 1 мм]  10/10 360 м кучево-дожд. 
[Cb cap]
+0 -0.4 97 1002.6  0.8  744  300           
03 19.11.17 тихо ()   1000 м  ливневой снег [диам. отлож. мокр. снега 3 мм]  10/10 240 м кучево-дожд. 
[Cb cap]
+0.2 +0.1 99 1003.1  0.5  745  300  -0.1    0.8     
06 19.11.17 тихо ()   1000 м  в посл. час туман{ливн. осадки} [диам. отлож. мокр. снега 0 мм]  10/10 180 м 
[St]
+0.5 +0.5 100 +1  1003.9  0.8  745  300  -0.1    равномерный
мокрый или
старый снег
100% 
09 19.11.17 тихо ()   2000 м  {морось}  10/10 100 м 
[St]
+1.3 +1.3 100 +1  1005.2  1.3  746  299           
12 19.11.17 тихо ()   20000 м  {морось}  10/10 300 м 
[Frnb]
+1.8 +1.8 100 +2  1006  0.8  747  299           
15 19.11.17 тихо ()   10 км  слаб. дождь  10/10 300 м 
[Frnb]
+1.5 +1.5 100 +2  1006.7  0.7  747  299         
18 19.11.17 тихо ()   2000 м  слаб. дождь  10/10 300 м 
[Frnb|Ns]
+1.2 +1.2 100 +1  1006.7  747  300    +1.8     
21 19.11.17 130 (ЮВ) 10 км  {дождь}  9/9 360 м 
[Frnb]
+1.3 +1.3 100 +2  1007.2  0.5  748  300           
00 20.11.17 110 (В) 10 км  {дождь}  10/10 360 м 
[Frnb]
+0 -0 100 +1  1007.1  0.1  748  301           
03 20.11.17 110 (В) 10 км    10/10 360 м 
[Frnb]
-0.2 -1 94 1006.8  -0.4  747  301  -0.6       
06 20.11.17 тихо ()   4000 м  слаб. снег [диам. отлож. мокр. снега 2 мм]  10/10 360 м 
[Frnb|Ns]
-0.7 -1 98 -1  1006.5  -0.3  747  302  -0.7    равномерный
мокрый или
старый снег
100% 
09 20.11.17 тихо ()   4000 м  слаб. снег [диам. отлож. мокр. снега 3 мм]  10/10 300 м 
[Frnb|Ns]
-0.5 -0.9 97 -1  1007.1  0.6  748  302           
12 20.11.17 тихо ()   4000 м  слаб. снег [диам. отлож. мокр. снега 6 мм]  10/10 240 м 
[Frnb|Ns]
-0.4 -0.7 98 -0  1007.4  0.3  748  302           
15 20.11.17 тихо ()   2000 м  слаб. ливневой снег [диам. отлож. мокр. снега 8 мм]  10/10 360 м кучево-дожд. 
[Cb cap]
-0.6 -0.8 99 -1  1008.4  749  302         
18 20.11.17 тихо ()   10 км  слаб. ливневой снег [диам. отлож. мокр. снега 9 мм]  10/10 480 м кучево-дожд. 
[Cb cap]
-1.4 -1.9 96 -1  1009.9  1.5  750  304    -0.3     
21 20.11.17 тихо ()   10 км  слаб. ливневой снег [диам. отлож. мокр. снега 9 мм]  10/10 450 м кучево-дожд. 
[Cb cap]
-2.3 -3.1 94 -2  1011.6  1.6  751  306           
00 21.11.17 060 (СВ) 10 км  слаб. ливневой снег [диам. отлож. мокр. снега 9 мм]  10/10 540 м кучево-дожд. 
[Cb cap]
-3.1 -4 93 -3  1013  1.4  752  307           
03 21.11.17 080 (В) 10 км  слаб. ливневой снег [диам. отлож. мокр. снега 5 мм]  8/8 840 м кучево-дожд. 
[Cb cap]
-4.1 -5.1 93 -4  1014  0.9  753  308  -4.1       
Время (UTC), дата Ветер
(°,м/с) 
Видим.   Явления Облачность Т
(°С)
Тd
(°С)
f(%) Тe
(°С)
Pmin
(гПа)
dP
(гПа)
Po
(мм)
O2
(г/м3)
Тmin Tmax R s Состояние
почвы

Для получения пояснительной информации подведите курсор к названию столбца.

ПОГОДА в Медвежьегорске - архив

Всё, что Вы хотите узнать о погоде в Медвежьегорске - удобно и подробно!

Выберите нужную дату (начиная с 1 января 2015* года) и нажмите кнопку "Найти".
Будут отображены архивные сводки погоды по пункту Медвежьегорск, начиная с указанной даты.


Отображать данные в формате CSV (для использования в таблицах Excel)


Внимание! Наш архив погоды предназначен исключительно для личного некоммерческого использования в познавательных целях. Если Вам необходимы официальные справки о состоянии погоды (для производственных, юридических, коммерческих и т.п. целей), обращайтесь в органы Росгидромета.

*Примечание: данная дата относится к архиву по метеостанциям СССР (Россия, СНГ, Балтия).
Архив по метеостанциям Зарубежной Европы и Азии (кроме Китая) хранится 10 дней, по другим регионам земного шара (Китай, Африка, Америка, Австралия, Океания) - 1 день.

Медвежьегорск - район местоположения метеостанции


Название, широта, долгота, высота метеостанции:
Медвежьегорск 62.9°ш. 34.4°д. 81 м над ур. моря [Российская Федерация]

Дополнительная информация

В oтличие oт бoльшинства пoгoдных сайтoв мы публикуем пoдрoбную метеoинфoрмацию в детальнoм прoфессиoнальнoм фoрмате.

Характеристики температуры и влажнoсти вoздуха измеряются на высoте 2 м в тени вдали oт зданий и деревьев.
Скoрoсть ветра измеряется на высoте 10 м (на урoвне рoста челoвека скoрoсть ветра ниже в 1.5-2 раза). Если метеoстанция нахoдится в гoрoде или в лесу, тo скoрoсть ветра занижена на 2-4 м/с пo сравнению с oткрытым местoм. Скoрoсть ветра над акватoриями крупных рек и oзёр, а также на вершинах хoлмoв на 2-5 м/с выше, чем в oбычных услoвиях.
Атмoсфернoе давление в разных тoчках местнoсти мoжет значительнo oтличаться oт давления на метеoстанции, в зависимoсти oт услoвий рельефа (при пoдъёме на 10 м давление пoнижается примернo на 1 мм рт.ст.).